Oscoda, MI

9:16 AM EDT on June 23, 2017 (GMT -0400)
Oscoda-Wurtsmith

Weather History for KOSC - June, 2013

Change the Weather History Date:

Wednesday, June 26, 2013

  Actual Average Record
Temperature  
Mean Temperature 70 °F -  
Max Temperature 81 °F 76 °F 93 °F (2007)
Min Temperature 59 °F 55 °F 42 °F (2004)
Cooling Degree Days 5    
Growing Degree Days 20 (Base 50)    
Moisture  
Dew Point 63 °F    
Average Humidity 74    
Maximum Humidity 98    
Minimum Humidity 51    
Precipitation  
Precipitation 0.00 in - - ()
Sea Level Pressure  
Sea Level Pressure 29.81 in    
Wind  
Wind Speed 4 mph (ESE)    
Max Wind Speed 12 mph    
Max Gust Speed -    
Visibility 10 miles    
Events      
Averages and records for this station are not official NWS values.
T = Trace of Precipitation, MM = Missing Value Source: NWS Daily Summary

Daily Weather History Graph

Daily Weather History Graph

Search for Another Location

Airport or City:

Trip Planner

Search our weather history database for the weather conditions in past years. The results will help you decide how hot, cold, wet, or windy it might be!

Date:

Astronomy

Jun. 26, 2013 Rise Set
Actual Time 5:50 AM EDT 9:22 PM EDT
Civil Twilight 5:13 AM EDT 9:58 PM EDT
Nautical Twilight 4:25 AM EDT 10:47 PM EDT
Astronomical Twilight 3:22 AM EDT 11:50 PM EDT
Moon 11:33 PM EDT (6/26) 9:50 AM EDT (6/26)
Length of Visible Light 16h 45m
Length of Day
15h 31m
Waning Gibbous, 85% of the Moon is Illuminated
Jun 26
Waning Gibbous
Jun 30
Last Quarter
Jul 8
New
Jul 15
First Quarter
Jul 22
Full

Hourly Weather History & Observations

Time (EDT) Temp. Heat Index Dew Point Humidity Pressure Visibility Wind Dir Wind Speed Gust Speed Precip Events Conditions
12:14 AM 68.9 °F - 64.4 °F 86% 29.83 in 10.0 mi West 4.6 mph - N/A   Clear
12:33 AM 66.4 °F - 63.7 °F 91% 29.83 in 10.0 mi SW 3.5 mph - N/A   Clear
12:54 AM 67.1 °F - 63.9 °F 89% 29.84 in 10.0 mi WSW 3.5 mph - N/A   Clear
1:14 AM 66.6 °F - 63.1 °F 89% 29.83 in 10.0 mi West 3.5 mph - N/A   Clear
1:33 AM 66.0 °F - 63.3 °F 91% 29.83 in 10.0 mi Calm Calm - N/A   Clear
1:54 AM 66.2 °F - 63.5 °F 91% 29.83 in 10.0 mi SW 5.8 mph - N/A   Clear
2:14 AM 68.0 °F - 63.7 °F 86% 29.83 in 10.0 mi SSW 4.6 mph - N/A   Clear
2:34 AM 67.5 °F - 64.0 °F 89% 29.82 in 10.0 mi Calm Calm - N/A   Clear
2:54 AM 64.6 °F - 62.4 °F 93% 29.81 in 10.0 mi Calm Calm - N/A   Clear
3:14 AM 63.7 °F - 61.7 °F 93% 29.80 in 10.0 mi West 3.5 mph - N/A   Clear
3:34 AM 62.8 °F - 61.2 °F 94% 29.80 in 10.0 mi Calm Calm - N/A   Clear
3:54 AM 63.1 °F - 62.1 °F 96% 29.80 in 10.0 mi Calm Calm - N/A   Clear
4:13 AM 63.5 °F - 61.9 °F 94% 29.80 in 10.0 mi SSW 4.6 mph - N/A   Clear
4:34 AM 61.5 °F - 59.7 °F 94% 29.79 in 10.0 mi Calm Calm - N/A   Clear
4:54 AM 62.6 °F - 61.2 °F 95% 29.80 in 10.0 mi Calm Calm - N/A   Clear
5:13 AM 60.8 °F - 60.1 °F 97% 29.79 in 10.0 mi Calm Calm - N/A   Clear
5:34 AM 61.0 °F - 60.3 °F 97% 29.80 in 7.0 mi Calm Calm - N/A   Clear
5:54 AM 60.4 °F - 59.9 °F 98% 29.80 in 2.0 mi Calm Calm - N/A   Clear
6:13 AM 59.7 °F - 58.8 °F 97% 29.80 in 1.5 mi Calm Calm - N/A   Mist
6:34 AM 59.7 °F - 59.2 °F 98% 29.81 in 10.0 mi Calm Calm - N/A   Clear
6:54 AM 62.6 °F - 61.2 °F 95% 29.81 in 10.0 mi Calm Calm - N/A   Clear
7:13 AM 65.1 °F - 62.6 °F 92% 29.82 in 10.0 mi Calm Calm - N/A   Clear
7:34 AM 67.3 °F - 63.5 °F 88% 29.82 in 10.0 mi Calm Calm - N/A   Clear
7:54 AM 70.0 °F - 63.7 °F 80% 29.84 in 10.0 mi Calm Calm - N/A   Clear
8:13 AM 71.6 °F - 63.7 °F 76% 29.83 in 10.0 mi NW 3.5 mph - N/A   Clear
8:34 AM 73.6 °F - 63.7 °F 71% 29.83 in 10.0 mi Calm Calm - N/A   Clear
8:54 AM 75.2 °F - 63.9 °F 68% 29.83 in 10.0 mi Calm Calm - N/A   Clear
9:13 AM 76.8 °F - 63.7 °F 64% 29.83 in 10.0 mi NNE 3.5 mph - N/A   Clear
9:34 AM 77.9 °F - 63.3 °F 61% 29.83 in 10.0 mi NNE 3.5 mph - N/A   Clear
9:54 AM 78.8 °F - 62.6 °F 57% 29.83 in 10.0 mi NE 3.5 mph - N/A   Clear
10:13 AM 79.3 °F - 62.6 °F 56% 29.83 in 10.0 mi East 3.5 mph - N/A   Clear
10:34 AM 80.4 °F 81.6 °F 62.6 °F 54% 29.82 in 10.0 mi SE 4.6 mph - N/A   Clear
10:54 AM 80.1 °F 81.2 °F 62.1 °F 54% 29.83 in 10.0 mi East 6.9 mph - N/A   Clear
11:14 AM 80.1 °F 81.4 °F 62.4 °F 55% 29.83 in 10.0 mi East 5.8 mph - N/A   Clear
11:34 AM 81.5 °F 82.8 °F 63.5 °F 54% 29.83 in 10.0 mi East 6.9 mph - N/A   Clear
11:53 AM 81.5 °F 82.7 °F 62.8 °F 53% 29.82 in 10.0 mi ESE 8.1 mph - N/A   Clear
12:14 PM 81.0 °F 82.2 °F 62.8 °F 54% 29.82 in 10.0 mi East 9.2 mph - N/A   Clear
12:34 PM 81.3 °F 82.2 °F 61.5 °F 51% 29.82 in 10.0 mi ESE 8.1 mph - N/A   Clear
12:53 PM 80.1 °F 81.1 °F 61.3 °F 53% 29.82 in 10.0 mi ESE 11.5 mph - N/A   Clear
1:14 PM 80.1 °F 81.2 °F 62.1 °F 54% 29.82 in 10.0 mi SE 8.1 mph - N/A   Clear
1:34 PM 81.1 °F 82.5 °F 63.5 °F 55% 29.82 in 10.0 mi ESE 9.2 mph - N/A   Clear
1:53 PM 81.1 °F 82.5 °F 63.3 °F 55% 29.82 in 10.0 mi East 8.1 mph - N/A   Clear
2:14 PM 80.4 °F 81.7 °F 62.8 °F 55% 29.82 in 10.0 mi ESE 10.4 mph - N/A   Clear
2:34 PM 80.6 °F 82.0 °F 63.5 °F 56% 29.83 in 10.0 mi ESE 10.4 mph - N/A   Clear
2:54 PM 80.6 °F 82.0 °F 63.7 °F 56% 29.82 in 10.0 mi ESE 9.2 mph - N/A   Clear
3:14 PM 80.8 °F 82.5 °F 64.6 °F 58% 29.81 in 10.0 mi ESE 10.4 mph - N/A   Clear
3:34 PM 80.6 °F 82.5 °F 65.5 °F 60% 29.80 in 10.0 mi ESE 9.2 mph - N/A   Clear
3:53 PM 80.8 °F 82.9 °F 66.0 °F 61% 29.80 in 10.0 mi ESE 6.9 mph - N/A   Clear
4:14 PM 81.3 °F 82.9 °F 64.0 °F 56% 29.79 in 10.0 mi East 6.9 mph - N/A   Clear
4:34 PM 80.8 °F 82.4 °F 64.2 °F 57% 29.80 in 10.0 mi East 9.2 mph - N/A   Clear
4:54 PM 79.2 °F - 63.0 °F 57% 29.80 in 10.0 mi ESE 10.4 mph - N/A   Clear
5:14 PM 79.5 °F - 63.0 °F 57% 29.80 in 10.0 mi ESE 8.1 mph - N/A   Clear
5:33 PM 78.4 °F - 62.6 °F 58% 29.80 in 10.0 mi East 8.1 mph - N/A   Clear
5:54 PM 78.1 °F - 63.0 °F 60% 29.80 in 10.0 mi SE 10.4 mph - N/A   Clear
6:14 PM 77.7 °F - 63.0 °F 60% 29.80 in 10.0 mi SE 6.9 mph - N/A   Clear
6:33 PM 77.4 °F - 63.0 °F 61% 29.79 in 10.0 mi ESE 6.9 mph - N/A   Clear
6:54 PM 77.4 °F - 63.1 °F 61% 29.79 in 10.0 mi SE 4.6 mph - N/A   Clear
7:14 PM 77.5 °F - 63.7 °F 62% 29.78 in 10.0 mi SE 4.6 mph - N/A   Clear
7:33 PM 77.0 °F - 63.3 °F 63% 29.78 in 10.0 mi SSE 6.9 mph - N/A   Clear
7:54 PM 75.7 °F - 64.2 °F 67% 29.77 in 10.0 mi SE 4.6 mph - N/A   Clear
8:13 PM 74.8 °F - 64.4 °F 70% 29.78 in 10.0 mi ESE 4.6 mph - N/A   Clear
8:34 PM 74.3 °F - 64.6 °F 72% 29.78 in 10.0 mi SE 3.5 mph - N/A   Clear
8:54 PM 73.2 °F - 63.9 °F 72% 29.78 in 10.0 mi ESE 3.5 mph - N/A   Clear
9:13 PM 72.5 °F - 64.2 °F 75% 29.78 in 10.0 mi Calm Calm - N/A   Clear
9:34 PM 71.6 °F - 64.0 °F 77% 29.78 in 4.0 mi East 5.8 mph - N/A   Haze
9:54 PM 68.2 °F - 63.3 °F 84% 29.79 in 5.0 mi Calm Calm - N/A   Haze
10:13 PM 70.3 °F - 64.0 °F 80% 29.79 in 10.0 mi ESE 4.6 mph - N/A   Clear
10:34 PM 68.9 °F - 64.0 °F 84% 29.80 in 10.0 mi Calm Calm - N/A   Clear
10:54 PM 67.3 °F - 64.4 °F 90% 29.80 in 10.0 mi Calm Calm - N/A   Clear
11:13 PM 66.7 °F - 63.3 °F 89% 29.79 in 10.0 mi Calm Calm - N/A   Clear
11:34 PM 64.8 °F - 61.5 °F 89% 29.79 in 10.0 mi Calm Calm - N/A   Clear
11:54 PM 67.1 °F - 64.2 °F 90% 29.78 in 10.0 mi Calm Calm - N/A   Clear